Location: Oshawa
(43.9000°N, 78.8670°W)
Time: 15:38:05
(UTC-04:00)

Cosmos 1500 - Visible Passes

Search period start: 22 August 2014 00:00
Search period end: 01 September 2014 00:00
Orbit: 518 x 544 km, 82.5° (Epoch: 21 August)

Date Brightness Start Highest point End Pass type
(mag) Time Alt. Az. Time Alt. Az. Time Alt. Az.
22 Aug 4.0 21:30:31 26° ESE 21:31:39 31° E 21:35:04 10° NNE visible
22 Aug 5.8 23:05:49 13° WSW 23:07:45 19° WNW 23:10:31 10° NNW visible
23 Aug 4.1 21:19:50 21° SE 21:21:31 29° E 21:24:52 10° NNE visible
23 Aug 5.7 22:55:07 12° WSW 22:57:35 20° WNW 23:00:27 10° NNW visible
24 Aug 4.2 21:09:01 15° SE 21:11:23 27° E 21:14:40 10° NNE visible
24 Aug 5.7 22:44:29 10° WSW 22:47:25 21° WNW 22:50:22 10° NNW visible
25 Aug 4.3 20:58:03 10° SSE 21:01:14 26° E 21:04:27 10° NNE visible
25 Aug 5.6 22:34:13 10° SW 22:37:14 22° WNW 22:40:17 10° NNW visible
26 Aug 4.3 20:47:59 10° SE 20:51:06 24° E 20:54:14 10° NE visible
26 Aug 5.5 22:23:57 10° SW 22:27:04 23° WNW 22:30:11 10° NNW visible
27 Aug 4.4 20:37:55 10° SE 20:40:57 23° E 20:44:01 10° NE visible
27 Aug 5.5 22:13:42 10° SW 22:16:53 25° WNW 22:20:05 10° NNW visible
28 Aug 4.5 20:27:51 10° SE 20:30:48 22° E 20:33:47 10° NE visible
28 Aug 5.4 22:03:27 10° SW 22:06:42 26° WNW 22:09:59 10° NNW visible
29 Aug 5.3 21:53:12 10° SW 21:56:31 27° WNW 21:59:52 10° NNW visible
30 Aug 5.2 21:42:57 10° SW 21:46:20 29° WNW 21:49:45 10° NNW visible
31 Aug 5.2 21:32:43 10° SW 21:36:09 31° WNW 21:39:37 10° NNW visible
